sat.trackr.live / text

‹ back to catalog

CENTISPACE-2 S10

NORAD 68359 · 2026-060K

PAYLOAD ACTIVE UNKNOWN

§ Identity

Operator
Country
PRC
Launch date
2026-03-22
Launch site
YSLA
Launch vehicle
Mass (kg)
RCS (m²)

External: N2YO · Heavens-Above · Gunter

§ Orbital elements

Epoch: 2026-09-17T21:56:54.259296Z

Period
100.95 min
Inclination
54.9854°
Eccentricity
0.0009391
Mean motion
14.26420774 rev/d
Perigee alt
797.0 km
Apogee alt
810.5 km
Semi-major
7,181.9 km
B*
1.0610e-4
RAAN
34.7109°
Arg perigee
268.8854°
Mean anomaly
91.1048°
Rev number
2,618

§ Raw data

CENTISPACE-2 S101 68359U 26060K   26260.91451689  .00000098  00000+0  10610-3 0  99912 68359  54.9854  34.7109 0009391 268.8854  91.1048 14.26420774 26182

JSON: /api/v1/satellites/68359 · /tle

For live sub-satellite position, see the globe view (requires WebGL).

§ Visibility from observer

Set your observer location to see the next 7 days of passes ≥ 10°. The values pass through the URL so the page stays shareable.

No JS? Fill the form by hand. The geolocation button needs JavaScript.